This demonstration page uses our WeatherBlox Daily Observations layout. Learn more.

Left ArrowRight Arrow

31.84235, -102.49876

Hourly Observations for May 28, 2022

Temp ( °F °C ) Dew Point ( °F °C ) Humidity (%) Winds ( mph kmh ) Pressure ( in mb ) Visibility ( mi km ) Precip ( " mm )
12:53 am 00:53 Clear 82 27.8 55 12.8 40 40 S 18 30 29.77 1008 10 16 0.00 0.00
1:53 am 01:53 Clear 80 26.7 58 14.4 47 47 S 18 30 29.75 1007 10 16 0.00 0.00
2:53 am 02:53 Clear 80 26.7 59 15 49 49 S 18 30 29.74 1007 10 16 0.00 0.00
3:53 am 03:53 Clear 79 26.1 60 15.6 52 52 S 18 30 29.73 1007 10 16 0.00 0.00
4:53 am 04:53 Clear 77 25 60 15.6 56 56 SSW 17 28 29.75 1007 10 16 0.00 0.00
5:53 am 05:53 Clear 76 24.4 60 15.6 58 58 SSW 15 24 29.73 1007 10 16 0.00 0.00
6:53 am 06:53 Sunny 75 23.9 60 15.6 60 60 S 13 20 29.72 1006 10 16 0.00 0.00
7:53 am 07:53 Sunny 77 25 60 15.6 56 56 S 16 26 29.73 1007 10 16 0.00 0.00
8:53 am 08:53 Sunny 81 27.2 58 14.4 45 45 S 17 28 29.72 1007 10 16 0.00 0.00
9:53 am 09:53 Sunny 86 30 56 13.3 36 36 SW 16 26 29.73 1007 10 16 0.00 0.00
10:53 am 10:53 Sunny 91 32.8 55 12.8 30 30 SSW 18 30 29.72 1006 10 16 0.00 0.00
11:53 am 11:53 Sunny 95 35 54 12.2 25 25 SSW 21 33 29.70 1006 10 16 0.00 0.00
12:53 pm 12:53 Sunny 98 36.7 48 8.9 18 18 SW 15 24 29.67 1005 10 16 0.00 0.00
1:53 pm 13:53 Sunny 100 37.8 45 7.2 15 15 SW 9 15 29.64 1004 10 16 0.00 0.00
2:53 pm 14:53 Sunny 104 40 39 3.9 11 11 WSW 14 22 29.60 1002 10 16 0.00 0.00
3:53 pm 15:53 Sunny 106 41.1 37 2.8 9 9 SSW 21 33 29.57 1001 10 16 0.00 0.00
4:09 pm 16:09 Sunny 103 39.4 47 8.3 15 15 S 23 37 29.44 997 10 16 0.00 0.00
4:36 pm 16:36 Sunny with Nearby Thunderstorms 99 37.2 49 9.4 18 18 S 26 43 29.45 997 9 14 0.00 0.00
4:51 pm 16:51 Sunny 99 37 48 9 18 18 SSW 25 41 29.45 997 10 16 0.00 0.00
4:53 pm 16:53 Mostly Sunny 98 36.7 49 9.4 19 19 SSW 24 39 29.57 1001 10 16 0.00 0.00
5:53 pm 17:53 Sunny 99 37.2 47 8.3 17 17 S 13 20 29.53 1000 10 16 0.00 0.00
6:53 pm 18:53 Sunny 99 37.2 42 5.6 14 14 S 22 35 29.52 1000 10 16 0.00 0.00
7:53 pm 19:53 Sunny 99 37.2 43 6.1 15 15 S 22 35 29.50 999 10 16 0.00 0.00
8:53 pm 20:53 Clear 94 34.4 52 11.1 24 24 S 18 30 29.51 999 10 16 0.00 0.00
9:53 pm 21:53 Clear 91 32.8 52 11.1 26 26 S 24 39 29.52 1000 10 16 0.00 0.00
10:53 pm 22:53 Clear 88 31.1 50 10 27 27 S 25 41 29.53 1000 10 16 0.00 0.00
11:53 pm 23:53 Clear 86 30 51 10.6 30 30 S 22 35 29.54 1001 10 16 0.00 0.00

Powered by AerisWeather